Location: Fairview
(40.8165°N, 122.7667°W)
Time: 13:23:01
(UTC+00:00)

Daily predictions for brighter satellites

Satellite Brightness Start Highest point End
(mag) Time Altitude Azimuth Time Altitude Azimuth Time Altitude Azimuth
Cosmos-2242 3.7 12:01:13 10° N 12:05:30 59° E 12:09:44 10° SSE
USA 81 4.5 12:00:54 10° NNW 12:05:53 45° W 12:10:52 10° SSW
DMSP B5D2-2 4.1 12:01:27 10° SSE 12:06:43 88° WSW 12:12:01 10° NNW
Cosmos 1844 Rocket 3.7 12:01:52 10° WSW 12:06:50 32° WNW 12:11:49 10° N
USA 234 3.5 12:01:19 10° SE 12:07:51 78° NE 12:14:25 10° NW
ATLAS 5 CENTAUR R/B 2.2 12:06:06 10° S 12:09:06 35° ESE 12:12:15 10° NE
